Baker, MT

1:26 AM MST on November 21, 2017 (GMT -0700)
Baker Municipal

Weather History for KBHK - August, 2013

Change the Weather History Date:

Monday, August 5, 2013

  Actual Average Record
Temperature  
Mean Temperature 68 °F -  
Max Temperature 82 °F 86 °F 93 °F (2005)
Min Temperature 53 °F 52 °F 46 °F (2012)
Cooling Degree Days 2    
Growing Degree Days 18 (Base 50)    
Moisture  
Dew Point 54 °F    
Average Humidity 68    
Maximum Humidity 89    
Minimum Humidity 34    
Precipitation  
Precipitation 0.44 in - - ()
Sea Level Pressure  
Sea Level Pressure 29.93 in    
Wind  
Wind Speed 4 mph (SSW)    
Max Wind Speed 38 mph    
Max Gust Speed 54 mph    
Visibility 9 miles    
Events Rain , Thunderstorm    
Averages and records for this station are not official NWS values.
T = Trace of Precipitation, MM = Missing Value Source: NWS Daily Summary

Daily Weather History Graph

Daily Weather History Graph

Search for Another Location

Airport or City:

Trip Planner

Search our weather history database for the weather conditions in past years. The results will help you decide how hot, cold, wet, or windy it might be!

Date:

Astronomy

Aug. 05, 2013 Rise Set
Actual Time 5:43 AM MDT 8:21 PM MDT
Civil Twilight 5:09 AM MDT 8:55 PM MDT
Nautical Twilight 4:26 AM MDT 9:38 PM MDT
Astronomical Twilight 3:35 AM MDT 10:28 PM MDT
Moon 4:42 AM MDT (8/5) 7:20 PM MDT (8/5)
Length of Visible Light 15h 46m
Length of Day
14h 37m
Waning Crescent, 1% of the Moon is Illuminated
Aug 5
Waning Crescent
Aug 6
New
Aug 14
First Quarter
Aug 20
Full
Aug 28
Last Quarter

Hourly Weather History & Observations

Time (MDT) Temp. Dew Point Humidity Pressure Visibility Wind Dir Wind Speed Gust Speed Precip Events Conditions
12:51 AM 59.0 °F 53.1 °F 81% 30.02 in 10.0 mi Calm Calm - N/A   Clear
1:51 AM 57.0 °F 52.0 °F 83% 30.01 in 10.0 mi South 4.6 mph - N/A   Clear
2:51 AM 55.9 °F 52.0 °F 87% 30.00 in 10.0 mi Calm Calm - N/A   Clear
3:51 AM 55.9 °F 52.0 °F 87% 29.99 in 10.0 mi Calm Calm - N/A   Clear
4:51 AM 54.0 °F 50.0 °F 86% 29.99 in 10.0 mi Calm Calm - 0.01 in   Clear
5:51 AM 53.1 °F 50.0 °F 89% 29.99 in 9.0 mi Calm Calm - N/A   Clear
6:51 AM 57.0 °F 53.1 °F 87% 29.98 in 10.0 mi Calm Calm - N/A   Clear
7:51 AM 63.0 °F 57.9 °F 84% 29.98 in 10.0 mi Calm Calm - N/A   Clear
8:51 AM 70.0 °F 57.9 °F 65% 29.97 in 10.0 mi Calm Calm - N/A   Clear
9:51 AM 73.0 °F 53.1 °F 49% 29.97 in 10.0 mi WNW 3.5 mph - N/A   Clear
10:51 AM 75.9 °F 53.1 °F 45% 29.96 in 10.0 mi Calm Calm - N/A   Clear
11:51 AM 77.0 °F 48.9 °F 37% 29.96 in 10.0 mi WSW 3.5 mph - N/A   Clear
12:51 PM 79.0 °F 52.0 °F 39% 29.94 in 10.0 mi NNW 4.6 mph - N/A   Clear
1:51 PM 80.1 °F 52.0 °F 38% 29.92 in 10.0 mi Calm Calm - N/A   Clear
2:51 PM 82.0 °F 52.0 °F 35% 29.90 in 10.0 mi Calm Calm - N/A   Clear
3:51 PM 81.0 °F 52.0 °F 36% 29.87 in 10.0 mi Variable 4.6 mph - N/A   Clear
4:51 PM 82.0 °F 51.1 °F 34% 29.84 in 10.0 mi SSE 8.1 mph - N/A   Clear
5:51 PM 77.0 °F 53.1 °F 43% 29.83 in 10.0 mi SE 6.9 mph - N/A   Clear
6:19 PM 73.4 °F 57.2 °F 57% 29.97 in 10.0 mi WNW 28.8 mph 51.8 mph 0.00 in Rain , Thunderstorm Light Rain
6:26 PM 60.8 °F 55.4 °F 82% 30.01 in 1.2 mi WNW 38.0 mph 54.1 mph 0.16 in Rain , Thunderstorm Heavy Thunderstorms and Rain
6:32 PM 59.0 °F 55.4 °F 88% 30.01 in 0.8 mi West 20.7 mph 52.9 mph 0.37 in Rain , Thunderstorm Heavy Thunderstorms and Rain
6:36 PM 60.8 °F 55.4 °F 82% 30.00 in 1.0 mi West 13.8 mph 43.7 mph 0.41 in Rain , Thunderstorm Heavy Thunderstorms and Rain
6:41 PM 60.8 °F 55.4 °F 82% 29.91 in 3.0 mi Variable 4.6 mph 24.2 mph 0.43 in Rain , Thunderstorm Heavy Thunderstorms and Rain
6:51 PM 61.0 °F 57.0 °F 87% 29.89 in 7.0 mi East 9.2 mph - 0.43 in Rain , Thunderstorm Light Thunderstorms and Rain
7:10 PM 62.6 °F 57.2 °F 82% 29.88 in 10.0 mi ESE 10.4 mph - 0.00 in   Partly Cloudy
7:51 PM 64.0 °F 55.9 °F 75% 29.82 in 10.0 mi SSE 5.8 mph - 0.00 in   Partly Cloudy
8:51 PM 63.0 °F 55.9 °F 78% 29.83 in 10.0 mi SSE 10.4 mph - N/A   Clear
9:51 PM 63.0 °F 54.0 °F 72% 29.83 in 10.0 mi Calm Calm - N/A   Clear
10:51 PM 63.0 °F 54.0 °F 72% 29.82 in 10.0 mi South 11.5 mph - N/A   Clear
11:51 PM 61.0 °F 54.0 °F 78% 29.83 in 10.0 mi Calm Calm - N/A   Clear